Andrews, TX

9:13 PM CST on December 11, 2017 (GMT -0600)
Andrews

Weather History for KE11 - February, 2013

Change the Weather History Date:

Friday, February 22, 2013

  Actual Average (KMAF) Record (KMAF)
Temperature  
Mean Temperature 38 °F -  
Max Temperature 51 °F 59 °F 87 °F (1996)
Min Temperature 26 °F 35 °F 19 °F (1966)
Degree Days  
Heating Degree Days 26    
Moisture  
Dew Point 26 °F    
Average Humidity 64    
Maximum Humidity 99    
Minimum Humidity 38    
Precipitation  
Precipitation 0.00 in - - ()
Sea Level Pressure  
Sea Level Pressure 29.98 in    
Wind  
Wind Speed 7 mph (East)    
Max Wind Speed 13 mph    
Max Gust Speed 17 mph    
Visibility 10 miles    
Events      
Averages and records for this station are not official NWS values.
T = Trace of Precipitation, MM = Missing Value Source: NWS Daily Summary

Daily Weather History Graph

Daily Weather History Graph

Search for Another Location

Airport or City:

Trip Planner

Search our weather history database for the weather conditions in past years. The results will help you decide how hot, cold, wet, or windy it might be!

Date:

Astronomy

Feb. 22, 2013 Rise Set
Actual Time 7:25 AM CST 6:42 PM CST
Civil Twilight 7:00 AM CST 7:07 PM CST
Nautical Twilight 6:31 AM CST 7:35 PM CST
Astronomical Twilight 6:03 AM CST 8:04 PM CST
Moon 4:02 PM CST (2/22) 5:04 AM CST (2/22)
Length of Visible Light 12h 06m
Length of Day
11h 17m
Waxing Gibbous, 90% of the Moon is Illuminated
Feb 22
Waxing Gibbous
Feb 25
Full
Mar 4
Last Quarter
Mar 11
New
Mar 19
First Quarter

Hourly Weather History & Observations

Time (CST) Temp. Windchill Dew Point Humidity Pressure Visibility Wind Dir Wind Speed Gust Speed Precip Events Conditions
12:15 AM 39.4 °F 36.1 °F 25.0 °F 56% 29.90 in 10.0 mi WNW 4.6 mph - N/A   Clear
12:35 AM 38.7 °F 35.2 °F 25.3 °F 59% 29.91 in 10.0 mi West 4.6 mph - N/A   Clear
12:55 AM 38.3 °F 35.9 °F 25.5 °F 60% 29.91 in 10.0 mi NNE 3.5 mph - N/A   Clear
1:15 AM 36.5 °F 32.7 °F 25.9 °F 65% 29.92 in 10.0 mi North 4.6 mph - N/A   Clear
1:35 AM 35.6 °F 31.7 °F 26.1 °F 68% 29.92 in 10.0 mi North 4.6 mph - N/A   Clear
1:55 AM 34.7 °F 31.8 °F 26.6 °F 72% 29.92 in 10.0 mi ENE 3.5 mph - N/A   Clear
2:15 AM 32.9 °F 26.7 °F 28.4 °F 84% 29.92 in 10.0 mi East 6.9 mph - N/A   Clear
2:35 AM 32.9 °F 26.7 °F 30.6 °F 91% 29.93 in 10.0 mi East 6.9 mph - N/A   Clear
2:55 AM 32.9 °F 25.9 °F 31.8 °F 96% 29.93 in 10.0 mi East 8.1 mph - N/A   Clear
3:15 AM 32.2 °F 24.4 °F 31.8 °F 99% 29.93 in 10.0 mi ESE 9.2 mph - N/A   Clear
3:35 AM 32.0 °F 24.8 °F 31.3 °F 97% 29.94 in 10.0 mi East 8.1 mph - N/A   Mostly Cloudy
3:55 AM 32.0 °F 24.2 °F 31.5 °F 98% 29.94 in 10.0 mi ESE 9.2 mph - N/A   Overcast
4:15 AM 30.9 °F 22.8 °F 29.3 °F 94% 29.95 in 10.0 mi East 9.2 mph - N/A   Mostly Cloudy
4:35 AM 30.2 °F 22.6 °F 28.0 °F 92% 29.96 in 10.0 mi East 8.1 mph - N/A   Overcast
4:55 AM 29.7 °F 21.3 °F 28.2 °F 94% 29.96 in 10.0 mi East 9.2 mph - N/A   Overcast
5:15 AM 30.0 °F 21.1 °F 28.4 °F 94% 29.97 in 10.0 mi ESE 10.4 mph - N/A   Overcast
5:35 AM 29.5 °F 21.8 °F 27.7 °F 93% 29.98 in 10.0 mi East 8.1 mph - N/A   Overcast
5:55 AM 29.1 °F 20.6 °F 27.3 °F 93% 30.00 in 10.0 mi East 9.2 mph - N/A   Overcast
6:15 AM 28.9 °F 19.8 °F 27.1 °F 93% 30.00 in 10.0 mi East 10.4 mph - N/A   Overcast
6:35 AM 28.4 °F 18.5 °F 26.6 °F 93% 30.01 in 10.0 mi East 11.5 mph - N/A   Overcast
6:55 AM 28.0 °F 19.3 °F 26.1 °F 92% 30.01 in 10.0 mi East 9.2 mph - N/A   Overcast
7:15 AM 27.9 °F 17.8 °F 25.5 °F 91% 30.02 in 10.0 mi ESE 11.5 mph - N/A   Overcast
7:35 AM 27.0 °F 16.1 °F 24.4 °F 90% 30.02 in 10.0 mi East 12.7 mph 17.3 mph N/A   Overcast
7:55 AM 26.1 °F 16.8 °F 23.5 °F 90% 30.03 in 10.0 mi East 9.2 mph - N/A   Mostly Cloudy
8:15 AM 27.1 °F 18.2 °F 23.9 °F 88% 30.03 in 10.0 mi East 9.2 mph - N/A   Scattered Clouds
8:35 AM 27.5 °F 17.4 °F 21.2 °F 77% 30.04 in 10.0 mi East 11.5 mph - N/A   Scattered Clouds
8:55 AM 29.1 °F 18.9 °F 20.7 °F 71% 30.06 in 10.0 mi East 12.7 mph - N/A   Clear
9:15 AM 29.7 °F 19.6 °F 21.2 °F 71% 30.06 in 10.0 mi East 12.7 mph - N/A   Clear
9:35 AM 30.7 °F 22.0 °F 21.7 °F 69% 30.06 in 10.0 mi ESE 10.4 mph - N/A   Clear
9:55 AM 31.8 °F 23.9 °F 21.4 °F 65% 30.06 in 10.0 mi East 9.2 mph 17.3 mph N/A   Clear
10:15 AM 32.2 °F 24.4 °F 20.8 °F 63% 30.06 in 10.0 mi East 9.2 mph - N/A   Clear
10:35 AM 33.6 °F 25.6 °F 21.0 °F 60% 30.04 in 10.0 mi ESE 10.4 mph - N/A   Clear
10:55 AM 34.9 °F 27.7 °F 21.0 °F 57% 30.04 in 10.0 mi ESE 9.2 mph 16.1 mph N/A   Clear
11:15 AM 35.2 °F 29.5 °F 21.6 °F 58% 30.04 in 10.0 mi ESE 6.9 mph 16.1 mph N/A   Clear
11:35 AM 37.0 °F 31.6 °F 22.5 °F 56% 30.04 in 10.0 mi SE 6.9 mph - N/A   Clear
12:15 PM 40.3 °F 34.9 °F 23.9 °F 52% 30.03 in 10.0 mi SE 8.1 mph - N/A   Clear
12:35 PM 40.6 °F 36.7 °F 23.9 °F 51% 30.03 in 10.0 mi East 5.8 mph - N/A   Clear
12:55 PM 41.7 °F - 24.1 °F 50% 30.02 in 10.0 mi Calm Calm - N/A   Clear
1:15 PM 44.1 °F 41.5 °F 24.4 °F 46% 30.00 in 10.0 mi ENE 4.6 mph - N/A   Clear
1:35 PM 44.8 °F - 24.4 °F 45% 29.99 in 10.0 mi Calm Calm - N/A   Clear
1:55 PM 45.5 °F 44.2 °F 24.6 °F 44% 29.98 in 10.0 mi ESE 3.5 mph - N/A   Clear
2:15 PM 46.6 °F - 24.6 °F 42% 29.97 in 10.0 mi Calm Calm - N/A   Clear
2:35 PM 47.3 °F - 24.8 °F 41% 29.96 in 10.0 mi SE 3.5 mph - N/A   Clear
2:55 PM 47.8 °F - 24.6 °F 40% 29.96 in 10.0 mi Calm Calm - N/A   Clear
3:15 PM 50.0 °F - 25.5 °F 39% 29.96 in 10.0 mi NE 3.5 mph - N/A   Clear
3:35 PM 49.1 °F - 25.9 °F 40% 29.95 in 10.0 mi East 4.6 mph - N/A   Clear
3:55 PM 49.8 °F - 26.2 °F 40% 29.95 in 10.0 mi NE 10.4 mph - N/A   Clear
4:15 PM 49.5 °F - 25.9 °F 40% 29.94 in 10.0 mi ENE 6.9 mph - N/A   Clear
4:35 PM 50.5 °F - 25.3 °F 38% 29.94 in 10.0 mi Calm Calm - N/A   Clear
4:55 PM 50.4 °F - 26.2 °F 39% 29.94 in 10.0 mi East 6.9 mph - N/A   Clear
5:15 PM 51.4 °F - 26.4 °F 38% 29.93 in 10.0 mi East 9.2 mph - N/A   Clear
5:35 PM 49.8 °F - 27.0 °F 41% 29.93 in 10.0 mi ENE 10.4 mph - N/A   Clear
5:55 PM 50.2 °F - 27.0 °F 41% 29.93 in 10.0 mi East 10.4 mph - N/A   Clear
6:15 PM 48.7 °F - 27.0 °F 43% 29.93 in 10.0 mi East 11.5 mph - N/A   Clear
6:35 PM 47.7 °F - 27.5 °F 46% 29.94 in 10.0 mi East 6.9 mph - N/A   Clear
6:55 PM 46.0 °F - 27.9 °F 49% 29.96 in 10.0 mi Calm Calm - N/A   Clear
7:15 PM 44.4 °F 41.2 °F 27.9 °F 52% 29.96 in 10.0 mi East 5.8 mph - N/A   Clear
7:35 PM 43.9 °F 41.3 °F 28.2 °F 54% 29.97 in 10.0 mi ESE 4.6 mph - N/A   Clear
7:55 PM 43.3 °F 38.1 °F 27.9 °F 54% 29.97 in 10.0 mi ESE 9.2 mph - N/A   Clear
8:15 PM 42.3 °F 36.8 °F 28.0 °F 57% 29.98 in 10.0 mi ESE 9.2 mph - N/A   Clear
8:35 PM 41.9 °F 37.5 °F 27.5 °F 57% 29.98 in 10.0 mi ESE 6.9 mph - N/A   Clear
8:55 PM 41.9 °F 39.0 °F 27.1 °F 56% 29.98 in 10.0 mi ESE 4.6 mph - N/A   Clear
9:15 PM 41.4 °F 36.8 °F 27.1 °F 57% 29.98 in 10.0 mi ESE 6.9 mph - N/A   Clear
9:35 PM 40.5 °F 37.3 °F 26.6 °F 58% 29.99 in 10.0 mi ESE 4.6 mph - N/A   Clear
9:55 PM 39.6 °F 34.7 °F 26.4 °F 59% 29.99 in 10.0 mi SE 6.9 mph - N/A   Clear
10:15 PM 39.0 °F 34.0 °F 26.2 °F 60% 30.00 in 10.0 mi SE 6.9 mph - N/A   Clear
10:35 PM 38.7 °F 31.8 °F 26.1 °F 61% 29.99 in 10.0 mi SE 10.4 mph - N/A   Clear
10:55 PM 38.5 °F 33.4 °F 26.1 °F 61% 29.99 in 10.0 mi SE 6.9 mph - N/A   Clear
11:15 PM 37.4 °F 32.8 °F 26.1 °F 64% 30.00 in 10.0 mi SE 5.8 mph - N/A   Clear
11:35 PM 37.6 °F 31.0 °F 25.9 °F 63% 29.98 in 10.0 mi SE 9.2 mph - N/A   Clear
11:55 PM 36.9 °F 31.4 °F 25.7 °F 64% 29.99 in 10.0 mi SE 6.9 mph - N/A   Clear